Courtland, AL

2:32 PM CDT on September 27, 2016 (GMT -0500)
Courtland

Weather History for K9A4 - November, 2012

Change the Weather History Date:

Wednesday, November 7, 2012

  Actual Average (KMSL) Record (KMSL)
Temperature  
Mean Temperature 44 °F 55 °F  
Max Temperature 53 °F 67 °F 84 °F (1915)
Min Temperature 35 °F 43 °F 24 °F (1993)
Degree Days  
Heating Degree Days 21 10  
Month to date heating degree days 67  
Since 1 July heating degree days 235  
Cooling Degree Days 0 0  
Month to date cooling degree days 4  
Year to date cooling degree days 1868  
Moisture  
Dew Point 40 °F    
Average Humidity 82    
Maximum Humidity 100    
Minimum Humidity 51    
Precipitation  
Precipitation 0.00 in 0.13 in 1.24 in (1943)
Month to date precipitation 0.92  
Year to date precipitation 43.78  
Snow  
Snow 0.00 in - - ()
Month to date snowfall  
Since 1 July snowfall  
Since 1 September snowfall  
Snow Depth -    
Sea Level Pressure  
Sea Level Pressure 30.03 in    
Wind  
Wind Speed 6 mph (NW)    
Max Wind Speed 18 mph    
Max Gust Speed 30 mph    
Visibility 10 miles    
Events Rain    
T = Trace of Precipitation, MM = Missing Value Source: NWS Daily Summary

Daily Weather History Graph

Daily Weather History Graph

Search for Another Location

Airport or City:

Trip Planner

Search our weather history database for the weather conditions in past years. The results will help you decide how hot, cold, wet, or windy it might be!

Date:

Astronomy

Nov. 07, 2012 Rise Set
Actual Time 6:15 AM CST 4:49 PM CST
Civil Twilight 5:49 AM CST 5:16 PM CST
Nautical Twilight 5:19 AM CST 5:46 PM CST
Astronomical Twilight 4:49 AM CST 6:15 PM CST
Moon No Moon Rise 12:43 PM CST (11/7)
Length of Visible Light 11h 26m
Length of Day
10h 33m
Last Quarter, 43% of the Moon is Illuminated
Nov 7
Last Quarter
Nov 13
New
Nov 20
First Quarter
Nov 28
Full
Dec 6
Last Quarter

Hourly Weather History & Observations

Time (CST) Temp. Windchill Dew Point Humidity Pressure Visibility Wind Dir Wind Speed Gust Speed Precip Events Conditions
12:15 AM 48.2 °F - 41.0 °F 76% 29.98 in 10.0 mi WNW 8.1 mph - N/A   Overcast
12:35 AM 46.4 °F 43.5 °F 41.0 °F 81% 29.97 in 10.0 mi WNW 5.8 mph - N/A   Mostly Cloudy
12:55 AM 44.6 °F 42.2 °F 39.2 °F 81% 29.97 in 10.0 mi West 4.6 mph - N/A   Scattered Clouds
1:15 AM 44.6 °F 41.4 °F 41.0 °F 87% 29.97 in 10.0 mi West 5.8 mph - N/A   Scattered Clouds
1:35 AM 46.4 °F 42.9 °F 41.0 °F 81% 29.97 in 10.0 mi West 6.9 mph - N/A   Overcast
1:55 AM 46.4 °F 44.3 °F 41.0 °F 81% 29.97 in 10.0 mi West 4.6 mph - N/A   Overcast
2:15 AM 44.6 °F 41.4 °F 41.0 °F 87% 29.96 in 10.0 mi West 5.8 mph - N/A   Overcast
2:55 AM 44.6 °F 41.4 °F 41.0 °F 87% 29.96 in 10.0 mi West 5.8 mph - N/A   Overcast
3:15 AM 44.6 °F 42.2 °F 41.0 °F 87% 29.96 in 10.0 mi WNW 4.6 mph - N/A   Scattered Clouds
3:35 AM 44.6 °F 41.4 °F 42.8 °F 93% 29.96 in 10.0 mi WNW 5.8 mph - N/A   Mostly Cloudy
3:55 AM 44.6 °F 42.2 °F 42.8 °F 93% 29.96 in 10.0 mi WNW 4.6 mph - N/A   Overcast
4:15 AM 44.6 °F 42.2 °F 42.8 °F 93% 29.97 in 10.0 mi WNW 4.6 mph - N/A   Overcast
4:35 AM 44.6 °F 41.4 °F 42.8 °F 93% 29.97 in 10.0 mi WNW 5.8 mph - N/A   Overcast
4:55 AM 42.8 °F 40.1 °F 41.0 °F 93% 29.97 in 10.0 mi WNW 4.6 mph - N/A   Overcast
5:15 AM 44.6 °F 42.2 °F 42.8 °F 93% 29.97 in 10.0 mi WNW 4.6 mph - N/A   Overcast
5:35 AM 44.6 °F 42.2 °F 41.0 °F 87% 29.97 in 10.0 mi WNW 4.6 mph - N/A   Overcast
5:55 AM 42.8 °F 40.1 °F 41.0 °F 93% 29.98 in 10.0 mi WNW 4.6 mph - N/A   Mostly Cloudy
6:15 AM 42.8 °F 40.1 °F 41.0 °F 93% 29.98 in 7.0 mi WNW 4.6 mph - N/A   Mostly Cloudy
6:35 AM 42.8 °F 41.1 °F 41.0 °F 93% 29.98 in 7.0 mi WNW 3.5 mph - N/A   Overcast
6:55 AM 44.6 °F 43.1 °F 42.8 °F 93% 29.99 in 7.0 mi West 3.5 mph - N/A   Mostly Cloudy
7:15 AM 44.6 °F 43.1 °F 42.8 °F 93% 30.00 in 7.0 mi West 3.5 mph - N/A   Overcast
7:35 AM 44.6 °F 43.1 °F 42.8 °F 93% 30.00 in 7.0 mi WNW 3.5 mph - N/A   Mostly Cloudy
7:55 AM 46.4 °F 43.5 °F 42.8 °F 87% 30.00 in 10.0 mi WNW 5.8 mph - N/A   Scattered Clouds
8:15 AM 46.4 °F 42.4 °F 41.0 °F 81% 30.00 in 10.0 mi WNW 8.1 mph - N/A   Clear
8:35 AM 48.2 °F - 41.0 °F 76% 30.01 in 10.0 mi NW 5.8 mph - N/A   Mostly Cloudy
8:55 AM 50.0 °F - 41.0 °F 71% 30.00 in 10.0 mi NW 4.6 mph - N/A   Scattered Clouds
9:15 AM 51.8 °F - 41.0 °F 67% 30.00 in 10.0 mi NW 5.8 mph - N/A   Scattered Clouds
9:35 AM 51.8 °F - 39.2 °F 62% 30.00 in 10.0 mi WNW 5.8 mph - N/A   Mostly Cloudy
9:55 AM 53.6 °F - 41.0 °F 62% 30.00 in 10.0 mi WNW 5.8 mph - N/A   Scattered Clouds
10:15 AM 53.6 °F - 39.2 °F 58% 30.00 in 10.0 mi NNW 8.1 mph - N/A   Mostly Cloudy
10:35 AM 53.6 °F - 39.2 °F 58% 29.99 in 10.0 mi WNW 9.2 mph 17.3 mph N/A   Overcast
10:55 AM 53.6 °F - 39.2 °F 58% 29.98 in 10.0 mi NW 3.5 mph - N/A   Overcast
11:15 AM 53.6 °F - 35.6 °F 51% 29.97 in 10.0 mi WNW 9.2 mph 16.1 mph N/A   Overcast
11:35 AM 53.6 °F - 37.4 °F 54% 29.97 in 10.0 mi WNW 10.4 mph 19.6 mph N/A   Overcast
11:55 AM 51.8 °F - 37.4 °F 58% 29.97 in 10.0 mi WNW 12.7 mph - N/A   Overcast
12:15 PM 50.0 °F - 39.2 °F 66% 29.97 in 10.0 mi WNW 12.7 mph - N/A Rain Light Rain
12:35 PM 48.2 °F - 35.6 °F 62% 29.98 in 10.0 mi NNW 18.4 mph 29.9 mph N/A   Overcast
12:55 PM 46.4 °F 40.7 °F 37.4 °F 71% 29.98 in 10.0 mi NNW 12.7 mph - N/A Rain Light Rain
1:15 PM 46.4 °F 40.4 °F 39.2 °F 76% 29.99 in 10.0 mi NNW 13.8 mph 17.3 mph N/A   Light Drizzle
1:35 PM 48.2 °F - 39.2 °F 71% 29.99 in 10.0 mi NNW 8.1 mph - N/A   Overcast
1:55 PM 50.0 °F - 41.0 °F 71% 30.00 in 10.0 mi North 9.2 mph - N/A   Overcast
2:15 PM 46.4 °F 42.4 °F 41.0 °F 81% 30.01 in 10.0 mi NNW 8.1 mph - N/A Rain Light Rain
2:35 PM 46.4 °F 41.5 °F 39.2 °F 76% 30.02 in 10.0 mi NNW 10.4 mph 17.3 mph N/A   Overcast
2:55 PM 46.4 °F 39.8 °F 37.4 °F 71% 30.03 in 10.0 mi NNW 16.1 mph 19.6 mph N/A   Overcast
3:15 PM 46.4 °F 39.8 °F 39.2 °F 76% 30.04 in 10.0 mi NNW 16.1 mph 20.7 mph N/A Rain Light Rain
3:35 PM 44.6 °F 41.4 °F 41.0 °F 87% 30.05 in 10.0 mi NNW 5.8 mph - N/A Rain Light Rain
3:55 PM 46.4 °F 43.5 °F 41.0 °F 81% 30.05 in 10.0 mi NNW 5.8 mph - N/A   Overcast
4:15 PM 44.6 °F 40.2 °F 39.2 °F 81% 30.06 in 10.0 mi NNW 8.1 mph - N/A   Scattered Clouds
4:35 PM 44.6 °F 40.7 °F 37.4 °F 76% 30.07 in 10.0 mi NNW 6.9 mph - N/A   Scattered Clouds
4:55 PM 44.6 °F 41.4 °F 39.2 °F 81% 30.07 in 10.0 mi NW 5.8 mph - N/A   Overcast
5:15 PM 44.6 °F 40.7 °F 39.2 °F 81% 30.08 in 10.0 mi NNW 6.9 mph - N/A   Overcast
5:35 PM 44.6 °F 41.4 °F 41.0 °F 87% 30.09 in 10.0 mi NNW 5.8 mph - N/A   Overcast
5:55 PM 44.6 °F 41.4 °F 41.0 °F 87% 30.10 in 10.0 mi NNW 5.8 mph - N/A   Overcast
6:15 PM 46.4 °F 44.3 °F 39.2 °F 76% 30.10 in 10.0 mi NNW 4.6 mph - N/A   Overcast
6:35 PM 44.6 °F 40.7 °F 41.0 °F 87% 30.11 in 10.0 mi NW 6.9 mph - N/A   Overcast
6:55 PM 44.6 °F 41.4 °F 39.2 °F 81% 30.11 in 10.0 mi NW 5.8 mph - N/A   Overcast
7:15 PM 42.8 °F 39.3 °F 37.4 °F 81% 30.11 in 10.0 mi NW 5.8 mph - N/A   Scattered Clouds
7:35 PM 42.8 °F 41.1 °F 37.4 °F 81% 30.12 in 10.0 mi NNW 3.5 mph - N/A   Clear
7:55 PM 41.0 °F 39.0 °F 39.2 °F 93% 30.13 in 10.0 mi North 3.5 mph - N/A   Clear
8:15 PM 39.2 °F 37.0 °F 37.4 °F 93% 30.14 in 10.0 mi WNW 3.5 mph - N/A   Clear
8:35 PM 39.2 °F 37.0 °F 37.4 °F 93% 30.15 in 10.0 mi WNW 3.5 mph - N/A   Clear
8:55 PM 37.4 °F 34.9 °F 37.4 °F 100% 30.16 in 10.0 mi NW 3.5 mph - N/A   Clear
9:15 PM 39.2 °F - 37.4 °F 93% 30.16 in 10.0 mi Calm Calm - N/A   Clear
9:35 PM 39.2 °F - 37.4 °F 93% 30.15 in 10.0 mi Calm Calm - N/A   Clear
9:55 PM 37.4 °F - 37.4 °F 100% 30.15 in 10.0 mi Calm Calm - N/A   Clear
10:15 PM 35.6 °F 30.7 °F 35.6 °F 100% 30.16 in 7.0 mi NW 5.8 mph - N/A   Clear
10:35 PM 35.6 °F 30.7 °F 35.6 °F 100% 30.16 in 10.0 mi NNW 5.8 mph - N/A   Clear
10:55 PM 37.4 °F 32.8 °F 37.4 °F 100% 30.16 in 10.0 mi NW 5.8 mph - N/A   Clear
11:15 PM 37.4 °F 33.8 °F 37.4 °F 100% 30.16 in 10.0 mi NW 4.6 mph - N/A   Clear
11:35 PM 35.6 °F 31.7 °F 35.6 °F 100% 30.16 in 10.0 mi NW 4.6 mph - N/A   Clear
11:55 PM 35.6 °F 30.7 °F 35.6 °F 100% 30.16 in 7.0 mi NW 5.8 mph - N/A   Clear